Regional Weather Roundup
Issued by NWS

Home | Current Version | Previous Version | Graphics & Text | Print | Product List | Glossary On
Versions: 1 2 3 4 5 6 7 8 9 10 11 12 13 14 15 16 17 18 19 20 21 22 23 24 25 26 27 28 29 30 31 32 33 34 35 36 37 38 39 40 41 42 43 44 45 46 47 48 49 50
204
ASUS43 KFSD 240710
RWRSD

WEATHER ROUNDUP FOR SOUTH DAKOTA
NATIONAL WEATHER SERVICE SIOUX FALLS SD
200 AM CDT MON JUL 24 2017

NOTE: "FAIR" INDICATES FEW OR NO CLOUDS BELOW 12,000 FEET WITH NO
SIGNIFICANT WEATHER AND/OR OBSTRUCTIONS TO VISIBILITY.


SDZ001>005-009-010-012>017-240800-
NORTHWEST AND NORTH CENTRAL SOUTH DAKOTA

CITY           SKY/WX    TMP DP  RH WIND       PRES   REMARKS
BUFFALO          N/A     73  51  46 SE20      29.88R
FAITH            N/A     69  55  60 SE21      29.95S
MOBRIDGE       CLEAR     68  61  78 SE13      29.94S
$$

SDZ012>016-024>037-041>051-057-063-072>074-240800-
SOUTHWEST AND SOUTH CENTRAL SOUTH DAKOTA

CITY           SKY/WX    TMP DP  RH WIND       PRES   REMARKS
RAPID CTY ARPT PTCLDY    69  51  52 SE8       29.95F
PIERRE         CLEAR     68  58  70 SE10      29.97S
CUSTER         CLOUDY    66  46  48 VRB3      30.10F
ELLSWORTH AFB  CLOUDY    71  51  49 SE7       29.95S
PHILIP         CLEAR     71  55  56 E9G20     29.94F
PINE RIDGE     CLEAR     77  57  50 SE23G30   29.94S
SPEARFISH      FAIR      81  48  32 W26G36    29.99R
WINNER         FAIR      68  57  68 SE10      30.00S
$$

SDZ004>011-016>023-039-040-240800-
NORTHEAST SOUTH DAKOTA

CITY           SKY/WX    TMP DP  RH WIND       PRES   REMARKS
ABERDEEN       CLEAR     60  59  96 SE7       29.99F
WATERTOWN      CLEAR     60  58  92 SE3       30.02S
BROOKINGS      CLEAR     61  58  90 SE5       30.04S
SISSETON         N/A     58  56  93 S3        30.00F
$$

SDZ017-020-022-023-036>040-048>070-240800-
SOUTHEAST SOUTH DAKOTA

CITY           SKY/WX    TMP DP  RH WIND       PRES   REMARKS
SIOUX FALLS    CLEAR     61  59  93 E3        30.03S
HURON          CLEAR     64  61  90 SE10      30.00R
CHAMBERLAIN    CLEAR     66  61  84 E9        30.00S
MITCHELL       CLEAR     64  60  87 S8        30.02R
YANKTON        CLEAR     63  61  93 E3        30.03R
$$

ABBREVIATIONS USED IN REMARKS
   TC - TEMPERATURE IN CELSIUS
  WCI - WIND CHILL INDEX
   HX - HEAT INDEX
  VSB - VISIBILITY





USA.gov is the U.S. government's official web portal to all federal, state and local government web resources and services.